Guymon, OK

12:29 AM CDT on July 21, 2017 (GMT -0500)
Guymon Municipal

Weather History for KGUY - March, 2012

Change the Weather History Date:

Thursday, March 22, 2012

  Actual Average Record
Temperature  
Mean Temperature 47 °F 48 °F  
Max Temperature 56 °F 63 °F 88 °F (2016)
Min Temperature 38 °F 33 °F -88 °F (2002)
Degree Days  
Heating Degree Days 18 17  
Month to date heating degree days 290 441  
Since 1 July heating degree days 3583 3908  
Cooling Degree Days 0 0  
Month to date cooling degree days 8 0  
Year to date cooling degree days 8 0  
Moisture  
Dew Point 39 °F    
Average Humidity 72    
Maximum Humidity 93    
Minimum Humidity 50    
Precipitation  
Precipitation 0.27 in 0.04 in 0.27 in (2012)
Month to date precipitation 1.37 0.98  
Year to date precipitation 1.70 1.85  
Snow  
Snow 0.00 in - - ()
Month to date snowfall T  
Since 1 July snowfall 9.1  
Snow Depth 0.00 in    
Sea Level Pressure  
Sea Level Pressure 29.79 in    
Wind  
Wind Speed 9 mph (NNW)    
Max Wind Speed 39 mph    
Max Gust Speed 48 mph    
Visibility 9 miles    
Events Rain    
T = Trace of Precipitation, MM = Missing Value Source: NWS Daily Summary

Daily Weather History Graph

Daily Weather History Graph

Search for Another Location

Airport or City:

Trip Planner

Search our weather history database for the weather conditions in past years. The results will help you decide how hot, cold, wet, or windy it might be!

Date:

Astronomy

Mar. 22, 2012 Rise Set
Actual Time 7:45 AM CDT 8:00 PM CDT
Civil Twilight 7:20 AM CDT 8:25 PM CDT
Nautical Twilight 6:49 AM CDT 8:56 PM CDT
Astronomical Twilight 6:19 AM CDT 9:26 PM CDT
Moon 7:27 AM CDT (3/22) 8:24 PM CDT (3/22)
Length of Visible Light 13h 05m
Length of Day
12h 14m
New Moon, 0% of the Moon is Illuminated
Mar 22
New Moon
Mar 30
First Quarter
Apr 6
Full
Apr 13
Last Quarter
Apr 21
New

Hourly Weather History & Observations

Time (CDT) Temp. Windchill Dew Point Humidity Pressure Visibility Wind Dir Wind Speed Gust Speed Precip Events Conditions
12:53 AM 44.1 °F 39.0 °F 42.1 °F 93% 29.69 in 6.0 mi WSW 9.2 mph - 0.17 in Rain Rain
1:38 AM 46.4 °F 39.8 °F 44.6 °F 93% 29.63 in 6.0 mi WSW 16.1 mph - 0.14 in Rain Rain
1:53 AM 46.9 °F - 45.0 °F 93% 29.59 in 6.0 mi West 16.1 mph - 0.17 in Rain Light Rain
2:53 AM 48.9 °F - 45.0 °F 86% 29.53 in 8.0 mi NNW 36.8 mph 47.2 mph 0.02 in Rain Light Rain
3:39 AM 48.2 °F - 46.4 °F 93% 29.58 in 10.0 mi North 31.1 mph 36.8 mph 0.08 in Rain Light Rain
3:53 AM 48.0 °F - 45.0 °F 89% 29.56 in 10.0 mi North 27.6 mph 35.7 mph 0.08 in Rain Light Rain
4:16 AM 42.8 °F 34.0 °F 41.0 °F 93% 29.62 in 10.0 mi NE 20.7 mph 26.5 mph 0.01 in Rain Light Rain
4:25 AM 42.8 °F 34.3 °F 39.2 °F 87% 29.63 in 10.0 mi ENE 19.6 mph - 0.01 in Rain Light Rain
4:53 AM 41.0 °F 34.7 °F 39.0 °F 93% 29.63 in 8.0 mi East 10.4 mph 20.7 mph 0.01 in   Overcast
5:11 AM 39.2 °F 29.8 °F 39.2 °F 100% 29.68 in 3.0 mi NE 18.4 mph 26.5 mph 0.00 in Rain Light Rain
5:18 AM 39.2 °F 29.8 °F 37.4 °F 93% 29.69 in 3.0 mi NE 18.4 mph 26.5 mph 0.01 in Rain Light Rain
5:53 AM 37.9 °F 30.0 °F 37.0 °F 97% 29.72 in 7.0 mi ENE 12.7 mph 24.2 mph 0.01 in Rain Light Rain
6:53 AM 39.0 °F 32.8 °F 37.0 °F 93% 29.75 in 10.0 mi ENE 9.2 mph - 0.00 in   Overcast
8:53 AM 39.9 °F 33.4 °F 37.0 °F 89% 29.85 in 10.0 mi North 10.4 mph - N/A   Overcast
9:24 AM 39.2 °F 32.0 °F 37.4 °F 93% 29.87 in 10.0 mi North 11.5 mph - N/A   Overcast
9:53 AM 41.0 °F 34.3 °F 37.9 °F 89% 29.88 in 10.0 mi North 11.5 mph - N/A   Overcast
10:01 AM 42.8 °F 38.6 °F 37.4 °F 81% 29.90 in 10.0 mi North 6.9 mph - N/A   Overcast
10:53 AM 43.0 °F 38.2 °F 37.0 °F 80% 29.89 in 10.0 mi WNW 8.1 mph - N/A   Mostly Cloudy
11:10 AM 44.6 °F 39.2 °F 37.4 °F 76% 29.90 in 10.0 mi NNW 10.4 mph - N/A   Mostly Cloudy
11:53 AM 48.0 °F - 39.0 °F 71% 29.88 in 10.0 mi WNW 11.5 mph - N/A   Partly Cloudy
12:53 PM 48.9 °F - 37.9 °F 66% 29.88 in 10.0 mi NNW 10.4 mph - N/A   Mostly Cloudy
1:14 PM 50.0 °F - 37.4 °F 62% 29.91 in 10.0 mi NNW 8.1 mph - N/A   Mostly Cloudy
1:28 PM 50.0 °F - 37.4 °F 62% 29.90 in 10.0 mi NNW 6.9 mph - N/A   Mostly Cloudy
1:53 PM 51.1 °F - 39.0 °F 63% 29.86 in 10.0 mi West 6.9 mph - N/A   Mostly Cloudy
2:53 PM 51.1 °F - 37.9 °F 61% 29.84 in 10.0 mi West 5.8 mph - N/A   Overcast
3:53 PM 53.1 °F - 37.9 °F 57% 29.83 in 10.0 mi NNW 4.6 mph - N/A   Mostly Cloudy
4:53 PM 54.0 °F - 37.9 °F 55% 29.84 in 10.0 mi North 9.2 mph - N/A   Partly Cloudy
5:53 PM 55.9 °F - 39.0 °F 53% 29.85 in 10.0 mi NNW 5.8 mph - N/A   Partly Cloudy
6:53 PM 54.0 °F - 35.1 °F 49% 29.86 in 10.0 mi North 5.8 mph - N/A   Clear
7:53 PM 52.0 °F - 37.9 °F 59% 29.88 in 10.0 mi North 4.6 mph - N/A   Clear
8:53 PM 50.0 °F - 39.0 °F 66% 29.90 in 10.0 mi Calm Calm - N/A   Clear
9:53 PM 48.9 °F - 39.9 °F 71% 29.91 in 10.0 mi Calm Calm - N/A   Partly Cloudy
10:53 PM 48.9 °F - 41.0 °F 74% 29.93 in 10.0 mi Calm Calm - N/A   Clear
11:53 PM 48.0 °F - 42.1 °F 80% 29.93 in 10.0 mi South 4.6 mph - N/A   Clear